Time,TemperatureF,DewpointF,PressureIn,WindDirection,WindDirectionDegrees,WindSpeedMPH,WindSpeedGustMPH,Humidity,HourlyPrecipIn,Conditions,Clouds,dailyrainin,SolarRadiationWatts/m^2,SoftwareType,DateUTC
2013-02-10 00:01:00,44.0,23.0,-100.00,WSW,257,8.0,11.0,44,0.00,,,0.00,0.000000,,2013-02-10 08:01:00,
2013-02-10 00:11:00,44.0,23.0,-100.00,WSW,257,8.0,11.0,44,0.00,,,0.00,0.000000,,2013-02-10 08:11:00,
2013-02-10 00:21:00,44.0,23.0,-100.00,WSW,257,8.0,11.0,44,0.00,,,0.00,0.000000,,2013-02-10 08:21:00,
2013-02-10 00:52:00,45.0,23.0,-100.00,WSW,253,8.0,11.0,41,0.00,,,0.00,0.000000,,2013-02-10 08:52:00,
2013-02-10 01:02:00,45.0,23.0,-100.00,WSW,253,8.0,11.0,41,0.00,,,0.00,0.000000,,2013-02-10 09:02:00,
2013-02-10 01:11:00,45.0,23.0,-100.00,WSW,253,8.0,11.0,41,0.00,,,0.00,0.000000,,2013-02-10 09:11:00,
2013-02-10 01:21:00,45.0,23.0,-100.00,WSW,253,8.0,11.0,41,0.00,,,0.00,0.000000,,2013-02-10 09:21:00,
2013-02-10 01:52:00,45.0,22.0,-100.00,WSW,245,7.0,11.0,39,0.00,,,0.00,0.000000,,2013-02-10 09:52:00,
2013-02-10 02:01:00,45.0,22.0,-100.00,WSW,245,7.0,11.0,39,0.00,,,0.00,0.000000,,2013-02-10 10:01:00,
2013-02-10 02:11:00,45.0,22.0,-100.00,WSW,245,7.0,11.0,39,0.00,,,0.00,0.000000,,2013-02-10 10:11:00,
2013-02-10 02:21:00,45.0,22.0,-100.00,WSW,245,7.0,11.0,39,0.00,,,0.00,0.000000,,2013-02-10 10:21:00,
2013-02-10 02:52:00,45.0,17.0,-100.00,West,260,4.0,11.0,32,0.00,,,0.00,0.000000,,2013-02-10 10:52:00,
2013-02-10 03:01:00,45.0,17.0,-100.00,West,260,4.0,11.0,32,0.00,,,0.00,0.000000,,2013-02-10 11:01:00,
2013-02-10 03:11:00,45.0,17.0,-100.00,West,260,4.0,11.0,32,0.00,,,0.00,0.000000,,2013-02-10 11:11:00,
2013-02-10 03:21:00,45.0,17.0,-100.00,West,260,4.0,11.0,32,0.00,,,0.00,0.000000,,2013-02-10 11:21:00,
2013-02-10 03:52:00,45.0,20.0,-100.00,West,265,8.0,12.0,36,0.00,,,0.00,0.000000,,2013-02-10 11:52:00,
2013-02-10 04:01:00,45.0,20.0,-100.00,West,265,8.0,12.0,36,0.00,,,0.00,0.000000,,2013-02-10 12:01:00,
2013-02-10 04:12:00,45.0,20.0,-100.00,West,265,8.0,12.0,36,0.00,,,0.00,0.000000,,2013-02-10 12:12:00,
2013-02-10 04:21:00,45.0,20.0,-100.00,West,265,8.0,12.0,36,0.00,,,0.00,0.000000,,2013-02-10 12:21:00,
2013-02-10 06:52:00,40.0,24.0,-100.00,NW,311,7.0,12.0,53,-99.99,,,0.00,0.000000,,2013-02-10 14:52:00,
2013-02-10 07:01:00,40.0,24.0,-100.00,NW,311,7.0,12.0,53,-99.99,,,0.00,0.000000,,2013-02-10 15:01:00,
2013-02-10 07:11:00,40.0,24.0,-100.00,NW,311,7.0,12.0,53,-99.99,,,0.00,0.000000,,2013-02-10 15:11:00,
2013-02-10 07:21:00,40.0,24.0,-100.00,NW,311,7.0,12.0,53,-99.99,,,0.00,0.000000,,2013-02-10 15:21:00,
2013-02-10 07:52:00,41.0,27.0,-100.00,NW,306,7.0,14.0,56,0.00,,,0.00,6.000000,,2013-02-10 15:52:00,
2013-02-10 08:01:00,41.0,27.0,-100.00,NW,306,7.0,14.0,56,0.00,,,0.00,6.000000,,2013-02-10 16:01:00,
2013-02-10 08:11:00,41.0,27.0,-100.00,NW,306,7.0,14.0,56,0.00,,,0.00,6.000000,,2013-02-10 16:11:00,
2013-02-10 08:21:00,41.0,27.0,-100.00,NW,306,7.0,14.0,56,0.00,,,0.00,6.000000,,2013-02-10 16:21:00,
2013-02-10 08:52:00,42.0,28.0,-100.00,NW,310,7.0,12.0,58,0.00,,,0.00,87.000000,,2013-02-10 16:52:00,
2013-02-10 09:01:00,42.0,28.0,-100.00,NW,310,7.0,12.0,58,0.00,,,0.00,87.000000,,2013-02-10 17:01:00,
2013-02-10 09:11:00,42.0,28.0,-100.00,NW,310,7.0,12.0,58,0.00,,,0.00,87.000000,,2013-02-10 17:11:00,
2013-02-10 09:21:00,42.0,28.0,-100.00,NW,310,7.0,12.0,58,0.00,,,0.00,87.000000,,2013-02-10 17:21:00,
2013-02-10 09:52:00,44.0,30.0,-100.00,NNW,346,6.0,12.0,58,0.00,,,0.00,266.000000,,2013-02-10 17:52:00,
2013-02-10 10:02:00,44.0,30.0,-100.00,NNW,346,6.0,12.0,58,0.00,,,0.00,266.000000,,2013-02-10 18:02:00,
2013-02-10 10:11:00,44.0,30.0,-100.00,NNW,346,6.0,12.0,58,0.00,,,0.00,266.000000,,2013-02-10 18:11:00,
2013-02-10 10:21:00,44.0,30.0,-100.00,NNW,346,6.0,12.0,58,0.00,,,0.00,266.000000,,2013-02-10 18:21:00,
2013-02-10 10:52:00,48.0,33.0,-100.00,NNW,347,6.0,14.0,56,0.00,,,0.00,443.000000,,2013-02-10 18:52:00,
2013-02-10 11:01:00,48.0,33.0,-100.00,NNW,347,6.0,14.0,56,0.00,,,0.00,443.000000,,2013-02-10 19:01:00,
2013-02-10 11:11:00,48.0,33.0,-100.00,NNW,347,6.0,14.0,56,0.00,,,0.00,443.000000,,2013-02-10 19:11:00,
2013-02-10 11:21:00,48.0,33.0,-100.00,NNW,347,6.0,14.0,56,0.00,,,0.00,443.000000,,2013-02-10 19:21:00,
2013-02-10 11:52:00,52.0,36.0,-100.00,NNW,338,6.0,17.0,54,0.00,,,0.00,542.000000,,2013-02-10 19:52:00,
2013-02-10 12:01:00,52.0,36.0,-100.00,NNW,338,6.0,17.0,54,0.00,,,0.00,542.000000,,2013-02-10 20:01:00,
2013-02-10 12:11:00,52.0,36.0,-100.00,NNW,338,6.0,17.0,54,0.00,,,0.00,542.000000,,2013-02-10 20:11:00,
2013-02-10 12:21:00,52.0,36.0,-100.00,NNW,338,6.0,17.0,54,0.00,,,0.00,542.000000,,2013-02-10 20:21:00,
2013-02-10 12:52:00,58.0,38.0,-100.00,North,4,5.0,12.0,47,0.00,,,0.00,603.000000,,2013-02-10 20:52:00,
2013-02-10 13:02:00,58.0,38.0,-100.00,North,4,5.0,12.0,47,0.00,,,0.00,603.000000,,2013-02-10 21:02:00,
2013-02-10 13:52:00,59.0,39.0,-100.00,NE,46,5.0,10.0,48,-99.99,,,0.00,602.000000,,2013-02-10 21:52:00,
2013-02-10 14:01:00,59.0,39.0,-100.00,NE,46,5.0,10.0,48,-99.99,,,0.00,602.000000,,2013-02-10 22:01:00,
2013-02-10 14:52:00,56.0,37.0,-100.00,NNW,344,4.0,9.0,49,-99.99,,,0.00,541.000000,,2013-02-10 22:52:00,
2013-02-10 15:02:00,56.0,37.0,-100.00,NNW,344,4.0,9.0,49,-99.99,,,0.00,541.000000,,2013-02-10 23:02:00,
2013-02-10 15:11:00,56.0,37.0,-100.00,NNW,344,4.0,9.0,49,-99.99,,,0.00,541.000000,,2013-02-10 23:11:00,
2013-02-10 15:21:00,56.0,37.0,-100.00,NNW,344,4.0,9.0,49,-99.99,,,0.00,541.000000,,2013-02-10 23:21:00,
2013-02-10 15:52:00,54.0,35.0,-100.00,North,3,4.0,10.0,49,0.00,,,0.00,428.000000,,2013-02-10 23:52:00,
2013-02-10 16:01:00,54.0,35.0,-100.00,North,3,4.0,10.0,49,0.00,,,0.00,428.000000,,2013-02-11 00:01:00,
2013-02-10 16:11:00,54.0,35.0,-100.00,North,3,4.0,10.0,49,0.00,,,0.00,428.000000,,2013-02-11 00:11:00,
2013-02-10 16:21:00,54.0,35.0,-100.00,North,3,4.0,10.0,49,0.00,,,0.00,428.000000,,2013-02-11 00:21:00,
2013-02-10 16:52:00,52.0,33.0,-100.00,NNE,24,5.0,12.0,48,0.00,,,-99.99,275.000000,,2013-02-11 00:52:00,
2013-02-10 17:01:00,52.0,33.0,-100.00,NNE,24,5.0,12.0,48,0.00,,,-99.99,275.000000,,2013-02-11 01:01:00,
2013-02-10 17:11:00,52.0,33.0,-100.00,NNE,24,5.0,12.0,48,0.00,,,-99.99,275.000000,,2013-02-11 01:11:00,
2013-02-10 17:21:00,52.0,33.0,-100.00,NNE,24,5.0,12.0,48,0.00,,,-99.99,275.000000,,2013-02-11 01:21:00,
2013-02-10 17:52:00,49.0,30.0,-100.00,North,9,4.0,11.0,48,0.00,,,0.00,96.000000,,2013-02-11 01:52:00,
2013-02-10 18:01:00,49.0,30.0,-100.00,North,9,4.0,11.0,48,0.00,,,0.00,96.000000,,2013-02-11 02:01:00,
2013-02-10 18:11:00,49.0,30.0,-100.00,North,9,4.0,11.0,48,0.00,,,0.00,96.000000,,2013-02-11 02:11:00,
2013-02-10 18:21:00,49.0,30.0,-100.00,North,9,4.0,11.0,48,0.00,,,0.00,96.000000,,2013-02-11 02:21:00,
2013-02-10 18:52:00,48.0,32.0,-100.00,WNW,292,7.0,10.0,54,0.00,,,0.00,3.000000,,2013-02-11 02:52:00,
2013-02-10 19:01:00,48.0,32.0,-100.00,WNW,292,7.0,10.0,54,0.00,,,0.00,3.000000,,2013-02-11 03:01:00,
2013-02-10 19:11:00,48.0,32.0,-100.00,WNW,292,7.0,10.0,54,0.00,,,0.00,3.000000,,2013-02-11 03:11:00,
2013-02-10 19:21:00,48.0,32.0,-100.00,WNW,292,7.0,10.0,54,0.00,,,0.00,3.000000,,2013-02-11 03:21:00,
2013-02-10 19:52:00,48.0,34.0,-100.00,West,261,10.0,15.0,59,0.00,,,0.00,0.000000,,2013-02-11 03:52:00,
2013-02-10 20:01:00,48.0,34.0,-100.00,West,261,10.0,15.0,59,0.00,,,0.00,0.000000,,2013-02-11 04:01:00,
2013-02-10 20:11:00,48.0,34.0,-100.00,West,261,10.0,15.0,59,0.00,,,0.00,0.000000,,2013-02-11 04:11:00,
2013-02-10 20:21:00,48.0,34.0,-100.00,West,261,10.0,15.0,59,0.00,,,0.00,0.000000,,2013-02-11 04:21:00,
2013-02-10 20:52:00,48.0,34.0,-100.00,West,270,9.0,14.0,59,0.00,,,0.00,0.000000,,2013-02-11 04:52:00,
2013-02-10 21:01:00,48.0,34.0,-100.00,West,270,9.0,14.0,59,0.00,,,0.00,0.000000,,2013-02-11 05:01:00,
2013-02-10 21:11:00,48.0,34.0,-100.00,West,270,9.0,14.0,59,0.00,,,0.00,0.000000,,2013-02-11 05:11:00,
2013-02-10 21:22:00,48.0,34.0,-100.00,West,270,9.0,14.0,59,0.00,,,0.00,0.000000,,2013-02-11 05:22:00,
2013-02-10 21:52:00,49.0,31.0,-100.00,WNW,288,8.0,13.0,50,0.00,,,0.00,0.000000,,2013-02-11 05:52:00,
2013-02-10 22:01:00,49.0,31.0,-100.00,WNW,288,8.0,13.0,50,0.00,,,0.00,0.000000,,2013-02-11 06:01:00,
2013-02-10 22:11:00,49.0,31.0,-100.00,WNW,288,8.0,13.0,50,0.00,,,0.00,0.000000,,2013-02-11 06:11:00,
2013-02-10 22:21:00,49.0,31.0,-100.00,WNW,288,8.0,13.0,50,0.00,,,0.00,0.000000,,2013-02-11 06:21:00,
2013-02-10 22:52:00,48.0,27.0,-100.00,WNW,303,9.0,15.0,43,0.00,,,0.00,0.000000,,2013-02-11 06:52:00,
2013-02-10 23:01:00,48.0,27.0,-100.00,WNW,303,9.0,15.0,43,0.00,,,0.00,0.000000,,2013-02-11 07:01:00,
2013-02-10 23:11:00,48.0,27.0,-100.00,WNW,303,9.0,15.0,43,0.00,,,0.00,0.000000,,2013-02-11 07:11:00,
2013-02-10 23:21:00,48.0,27.0,-100.00,WNW,303,9.0,15.0,43,0.00,,,0.00,0.000000,,2013-02-11 07:21:00,
2013-02-10 23:52:00,46.0,25.0,-100.00,NW,320,7.0,13.0,43,0.00,,,0.00,0.000000,,2013-02-11 07:52:00,